Find Starlink 4683

NORAD ID: 53712 Int'l Des: 2022-107 Owner: SPXS Country: US Constellation: starlink operational
LEOCIRCULAR

当前视图

正在加载3D地球...

About Starlink 4683

Starlink 4683 (NORAD 53712) is a starlink constellation satellite (v1.5) launched Sep 5, 2022 by SPXS of US. It operates in LEO, CIRCULAR orbit with a mass of 305.00 kg.

关于 Starlink 4683

正在加载描述...

即将过境

Passes for default location (London). Set your location on the main map for personalized predictions.

高度历史

Loading altitude history...

两行轨道根数

1 53712U 22107N 26171.18342445 .00000188 00000-0 29942-4 0 9995
2 53712 53.1603 148.4412 0001327 89.0986 271.0158 15.08832891209971
Epoch: Jun 20, 2026 • Age: 10 hours

当前状态

高度 541.4 km
速度 7.59 km/s
星下点 -4.52°S, 25.75°E
发射日期 Sep 5, 2022
运行时间 3.7 years
类型 internet

技术详情

分类 Payload
质量 305.00 kg
干质量 290.00 kg
总质量 305.00 kg
长度 0.20 m
直径 2.80 m
跨度 9.00 m
形状 Box + pan
制造商 SPXS
平台类型 Starlink
阶段状态 In Orbit
所有者/国家 SPXS/US

Most Searched